Location: Omaha
(41.2590°N, 95.9380°W)
Time: 09:55:26
(UTC-05:00)

ISS - Pass Details

Date: 10 October 2017
Orbit: 401 x 408 km, 51.6° (Epoch: 18 October)

Event Time Altitude Azimuth Distance (km) Brightness Sun altitude
Rises 20:15:09 0° 310° (NW) 2,326 1.0 -16.8°
Reaches altitude 10° 20:17:22 10° 320° (NW) 1,465 -0.4 -17.2°
Maximum altitude 20:20:23 33° 27° (NNE) 699 -2.9 -17.7°
Enters shadow 20:20:29 33° 31° (NNE) 701 -2.9 -17.8°
